Highgate, VT

6:49 PM EST on November 21, 2019 (GMT -0500)
Franklin County State

Weather History for KFSO - September, 2019

Change the Weather History Date:

Monday, September 23, 2019

  Actual Average (WUND) Record (WUND)
Temperature  
Mean Temperature 72 °F -  
Max Temperature 77 °F - - (-1)
Min Temperature 66 °F - - (-1)
Cooling Degree Days 7    
Growing Degree Days 22 (Base 50)    
Moisture  
Dew Point 68 °F    
Average Humidity 84    
Maximum Humidity 96    
Minimum Humidity 69    
Precipitation  
Precipitation 0.00 in - - ()
Sea Level Pressure  
Sea Level Pressure 29.69 in    
Wind  
Wind Speed 6 mph (SSW)    
Max Wind Speed 10 mph    
Max Gust Speed -    
Visibility 10 miles    
Events Rain    
Averages and records for this station are not official NWS values.
T = Trace of Precipitation, MM = Missing Value Source: NWS Daily Summary

Daily Weather History Graph

Daily Weather History Graph

Search for Another Location

Airport or City:

Astronomy

Sep. 23, 2019 Rise Set
Actual Time 6:40 AM EDT 6:48 PM EDT
Civil Twilight 6:11 AM EDT 7:17 PM EDT
Nautical Twilight 5:36 AM EDT 7:51 PM EDT
Astronomical Twilight 5:01 AM EDT 8:27 PM EDT
Moon 12:04 AM EDT (9/23) 3:55 PM EDT (9/23)
Length of Visible Light 13h 06m
Length of Day
12h 08m
Waning Crescent, 33% of the Moon is Illuminated
Sep 23
Waning Crescent
Sep 28
New
Oct 5
First Quarter
Oct 13
Full
Oct 21
Last Quarter

Hourly Weather History & Observations

Time (EDT) Temp. Dew Point Humidity Pressure Visibility Wind Dir Wind Speed Gust Speed Precip Events Conditions
12:15 AM 77.2 °F 66.2 °F 69% 29.80 in 10.0 mi SSW 8.1 mph - N/A   Scattered Clouds
12:36 AM 77.2 °F 66.2 °F 69% 29.79 in 10.0 mi South 5.8 mph - N/A   Clear
12:55 AM 77.0 °F 66.2 °F 69% 29.79 in 10.0 mi South 8.1 mph - N/A   Clear
1:16 AM 77.2 °F 66.2 °F 69% 29.78 in 10.0 mi South 8.1 mph - N/A   Mostly Cloudy
1:35 AM 77.0 °F 66.4 °F 70% 29.78 in 10.0 mi South 10.4 mph - N/A   Overcast
1:55 AM 76.8 °F 66.4 °F 70% 29.77 in 10.0 mi South 9.2 mph - N/A   Mostly Cloudy
2:15 AM 76.6 °F 66.4 °F 70% 29.76 in 10.0 mi South 8.1 mph - N/A   Overcast
2:35 AM 77.0 °F 66.4 °F 70% 29.76 in 10.0 mi South 6.9 mph - N/A   Overcast
2:55 AM 77.0 °F 66.4 °F 70% 29.75 in 10.0 mi South 5.8 mph - N/A   Overcast
3:16 AM 76.5 °F 66.4 °F 71% 29.75 in 10.0 mi South 6.9 mph - N/A   Mostly Cloudy
3:35 AM 76.8 °F 66.2 °F 70% 29.75 in 10.0 mi South 5.8 mph - N/A   Overcast
3:56 AM 76.1 °F 66.4 °F 72% 29.76 in 10.0 mi SSW 3.5 mph - N/A   Overcast
4:15 AM 74.7 °F 67.3 °F 78% 29.75 in 10.0 mi South 6.9 mph - N/A   Drizzle
4:36 AM 74.3 °F 68.0 °F 81% 29.75 in 10.0 mi South 6.9 mph - N/A Rain Light Rain
4:56 AM 73.4 °F 68.5 °F 85% 29.74 in 10.0 mi South 4.6 mph - N/A Rain Rain
5:15 AM 72.7 °F 68.9 °F 88% 29.74 in 10.0 mi South 4.6 mph - N/A Rain Light Rain
5:35 AM 71.8 °F 69.3 °F 92% 29.74 in 7.0 mi South 5.8 mph - N/A Rain Light Rain
5:55 AM 71.6 °F 69.4 °F 93% 29.73 in 10.0 mi South 5.8 mph - N/A   Light Drizzle
6:16 AM 71.8 °F 69.1 °F 91% 29.73 in 10.0 mi South 4.6 mph - N/A   Clear
6:56 AM 71.6 °F 68.5 °F 90% 29.72 in 10.0 mi South 4.6 mph - N/A   Scattered Clouds
7:15 AM 71.6 °F 68.4 °F 89% 29.73 in 10.0 mi South 5.8 mph - N/A   Clear
7:36 AM 72.0 °F 68.2 °F 88% 29.73 in 10.0 mi South 4.6 mph - N/A   Clear
7:55 AM 71.8 °F 68.0 °F 88% 29.72 in 10.0 mi South 3.5 mph - N/A   Clear
8:15 AM 71.6 °F 68.0 °F 88% 29.73 in 10.0 mi South 4.6 mph - N/A   Scattered Clouds
8:36 AM 72.1 °F 67.3 °F 85% 29.73 in 10.0 mi SSW 4.6 mph - N/A Rain Light Rain
8:56 AM 72.5 °F 67.1 °F 83% 29.73 in 10.0 mi SSW 5.8 mph - N/A Rain Light Rain
9:15 AM 72.7 °F 67.1 °F 83% 29.72 in 10.0 mi SSW 4.6 mph - N/A   Light Drizzle
9:36 AM 72.7 °F 67.3 °F 83% 29.71 in 10.0 mi South 3.5 mph - N/A   Mostly Cloudy
9:55 AM 72.5 °F 68.0 °F 86% 29.71 in 10.0 mi South 4.6 mph - N/A Rain Light Rain
10:15 AM 72.5 °F 68.4 °F 87% 29.70 in 10.0 mi South 4.6 mph - N/A   Light Drizzle
10:36 AM 72.9 °F 68.4 °F 86% 29.70 in 10.0 mi South 3.5 mph - N/A Rain Light Rain
10:56 AM 72.9 °F 69.1 °F 88% 29.69 in 10.0 mi South 4.6 mph - N/A Rain Rain
11:16 AM 72.9 °F 69.1 °F 88% 29.70 in 10.0 mi South 4.6 mph - N/A   Overcast
11:35 AM 73.0 °F 69.1 °F 87% 29.69 in 10.0 mi SSW 4.6 mph - N/A   Overcast
11:56 AM 72.9 °F 69.1 °F 88% 29.69 in 10.0 mi SSW 3.5 mph - N/A   Overcast
12:16 PM 73.4 °F 68.0 °F 83% 29.69 in 10.0 mi SW 5.8 mph - N/A   Overcast
12:36 PM 73.4 °F 68.0 °F 83% 29.69 in 10.0 mi SW 3.5 mph - N/A   Overcast
12:56 PM 73.4 °F 68.2 °F 84% 29.68 in 10.0 mi Calm Calm - N/A   Overcast
1:16 PM 74.1 °F 68.4 °F 82% 29.68 in 10.0 mi SSW 4.6 mph - N/A   Overcast
1:36 PM 74.3 °F 68.2 °F 81% 29.67 in 10.0 mi SSW 4.6 mph - N/A   Overcast
1:55 PM 75.2 °F 68.4 °F 79% 29.67 in 10.0 mi Calm Calm - N/A   Overcast
2:16 PM 74.8 °F 67.8 °F 79% 29.67 in 10.0 mi Calm Calm - N/A   Overcast
2:35 PM 74.3 °F 68.2 °F 81% 29.67 in 10.0 mi South 4.6 mph - N/A   Overcast
2:56 PM 74.7 °F 68.2 °F 80% 29.66 in 10.0 mi SSW 4.6 mph - N/A   Overcast
3:15 PM 74.7 °F 68.0 °F 80% 29.66 in 10.0 mi SSW 4.6 mph - N/A   Overcast
3:36 PM 74.5 °F 67.8 °F 80% 29.65 in 10.0 mi Calm Calm - N/A   Overcast
3:55 PM 75.2 °F 67.6 °F 77% 29.65 in 10.0 mi SSW 4.6 mph - N/A   Overcast
4:16 PM 75.6 °F 68.2 °F 78% 29.64 in 10.0 mi SSW 3.5 mph - N/A   Overcast
4:35 PM 76.3 °F 67.8 °F 75% 29.64 in 10.0 mi SSW 4.6 mph - N/A   Overcast
4:56 PM 75.6 °F 68.0 °F 77% 29.65 in 10.0 mi SSW 4.6 mph - N/A   Overcast
5:15 PM 75.7 °F 67.3 °F 75% 29.64 in 10.0 mi SSW 5.8 mph - N/A   Mostly Cloudy
5:36 PM 75.2 °F 67.1 °F 76% 29.64 in 10.0 mi SSW 8.1 mph - N/A   Overcast
5:56 PM 74.8 °F 67.1 °F 77% 29.64 in 10.0 mi SSW 5.8 mph - N/A   Overcast
6:15 PM 74.5 °F 67.1 °F 78% 29.64 in 10.0 mi SSW 4.6 mph - N/A   Overcast
6:35 PM 73.8 °F 67.3 °F 80% 29.64 in 10.0 mi SW 3.5 mph - N/A Rain Rain
6:55 PM 72.1 °F 68.5 °F 88% 29.63 in 7.0 mi SSW 3.5 mph - N/A Rain Light Rain
7:16 PM 70.7 °F 69.1 °F 95% 29.64 in 5.0 mi SSW 3.5 mph - N/A Rain Rain
7:35 PM 70.7 °F 69.1 °F 95% 29.64 in 7.0 mi SSW 3.5 mph - N/A Rain Light Rain
7:55 PM 70.3 °F 68.9 °F 95% 29.65 in 5.0 mi SSW 3.5 mph - N/A Rain Rain
8:16 PM 70.0 °F 68.5 °F 95% 29.64 in 4.0 mi South 3.5 mph - N/A Rain Rain
8:36 PM 69.8 °F 68.4 °F 95% 29.64 in 10.0 mi South 4.6 mph - N/A Rain Rain
8:56 PM 69.4 °F 68.2 °F 96% 29.61 in 10.0 mi SSE 4.6 mph - N/A Rain Light Rain
9:15 PM 69.4 °F 68.2 °F 96% 29.63 in 10.0 mi South 3.5 mph - N/A Rain Rain
9:35 PM 69.1 °F 68.0 °F 96% 29.64 in 10.0 mi South 4.6 mph - N/A   Drizzle
9:56 PM 68.9 °F 67.8 °F 96% 29.64 in 7.0 mi SW 3.5 mph - N/A Rain Rain
10:15 PM 68.4 °F 67.1 °F 96% 29.64 in 7.0 mi SSW 3.5 mph - N/A Rain Light Rain
10:36 PM 68.0 °F 66.7 °F 96% 29.64 in 7.0 mi SW 4.6 mph - N/A Rain Light Rain
10:55 PM 67.6 °F 66.4 °F 96% 29.64 in 10.0 mi SW 4.6 mph - N/A Rain Light Rain
11:15 PM 67.6 °F 66.4 °F 96% 29.64 in 10.0 mi SW 3.5 mph - N/A   Mostly Cloudy
11:36 PM 67.6 °F 66.4 °F 96% 29.66 in 10.0 mi SW 5.8 mph - N/A   Overcast
11:55 PM 66.2 °F 65.1 °F 96% 29.66 in 10.0 mi WSW 3.5 mph - N/A   Overcast